Flag for Rwanda Weather past 2 weeks in Butare, Rwanda

Now
73 °F

Passing clouds.


Feels Like: 73 °F
Forecast: 58 / 74 °F
Wind: 3 mph from South

Location: Kigali Airport

Current Time: Oct 26, 2014 at 9:45:21 AM

Latest Report: Oct 26, 2014 at 9:00 AM


Visibility: 5 mi

Pressure: 30.18 "Hg

Humidity: 83%

Dew point: 68 °F

Location of ButareLocation

Historic Weather in Butare — Graph

°F

Butare temperature yesterday

Maximum temperature yesterday: 82 °F (at 1:00 PM)
Minimum temperature yesterday: 63 °F (at 3:30 AM)
Average temperature yesterday: 71 °F

Past Weeks' High & Low Weather Summary

 TemperatureHumidityPressure
High86 °F (Oct 17, 1:30 PM)100% (Oct 15, 1:30 AM)30.24 "Hg (Oct 15, 1:30 AM)
Low34 °F (Oct 20, 10:00 AM)37% (Oct 11, 4:30 PM)29.98 "Hg (Oct 17, 3:00 PM)
Average70 °F79%30.11 "Hg
* Reported Oct 11 8:00 AM — Oct 26 8:30 AM, Butare, Weather by CustomWeather, © 2014

Note: Actual official high and low records may vary slightly from our data, if they occured in-between our weather recording intervals... More about our weather records

Advertising

Butare weather history for previous 24 hours

 ConditionsComfort  
Time TempWeatherWind HumidityBarometerVisibility
8:30 AM
Oct 26
72 °FPassing clouds.No wind83%30.18 "Hg4 mi
7:30 AM66 °FPassing clouds.3 mph100%30.18 "Hg4 mi
7:00 AM64 °FPassing clouds.No wind100%30.15 "Hg4 mi
6:30 AM63 °FPassing clouds.No wind100%30.15 "HgN/A
5:30 AM61 °FPassing clouds.3 mph100%30.12 "HgN/A
5:00 AM63 °FPassing clouds.No wind100%30.09 "HgN/A
4:30 AM63 °FPassing clouds.No wind100%30.09 "HgN/A
4:00 AM63 °FPassing clouds.6 mph100%30.09 "HgN/A
3:30 AM63 °FPassing clouds.No wind100%30.09 "HgN/A
3:00 AM63 °FPassing clouds.5 mph100%30.09 "HgN/A
2:30 AM63 °FPassing clouds.5 mph100%30.09 "HgN/A
2:00 AM64 °FPassing clouds.No wind100%30.09 "HgN/A
1:30 AM64 °FPassing clouds.3 mph100%30.09 "HgN/A
1:00 AM64 °FPassing clouds.No wind100%30.12 "HgN/A
12:30 AM64 °FPassing clouds.5 mph100%30.12 "HgN/A
12:00 AM66 °FPassing clouds.No wind100%30.12 "HgN/A
11:30 PM
Oct 25
66 °FPassing clouds.3 mph100%30.12 "HgN/A
11:00 PM66 °FPassing clouds.3 mph100%30.12 "HgN/A
10:30 PM66 °FMild.5 mph100%30.12 "HgN/A
10:00 PM68 °FPassing clouds.No wind88%30.12 "HgN/A
9:30 PM68 °FPassing clouds.No wind88%30.12 "HgN/A
9:00 PM68 °FPassing clouds.No wind88%30.12 "HgN/A
8:30 PM70 °FPassing clouds.7 mph88%30.12 "HgN/A
8:00 PM70 °FPassing clouds.8 mph83%30.09 "HgN/A
7:00 PM73 °FPassing clouds.3 mph74%30.09 "HgN/A
6:30 PM73 °FPassing clouds.5 mph74%30.09 "HgN/A
6:00 PM75 °FPassing clouds.5 mph69%30.07 "HgN/A
5:30 PM77 °FScattered clouds.5 mph61%30.04 "HgN/A
5:00 PM81 °FScattered clouds.7 mph54%30.04 "HgN/A
4:30 PM79 °FScattered clouds.10 mph61%30.04 "HgN/A
4:00 PM81 °FScattered clouds.6 mph58%30.04 "HgN/A
3:30 PM82 °FScattered clouds.8 mph55%30.04 "HgN/A
3:00 PM82 °FScattered clouds.12 mph51%30.04 "HgN/A
1:30 PM81 °FPartly sunny.15 mph58%30.07 "HgN/A
1:00 PM82 °FPartly sunny.8 mph55%N/AN/A
12:30 PM81 °FScattered clouds.9 mph58%N/AN/A
12:00 PM81 °FPartly sunny.5 mph54%N/AN/A
11:30 AM79 °FScattered clouds.5 mph70%N/AN/A
11:00 AM79 °FScattered clouds.6 mph65%N/AN/A
10:30 AM79 °FScattered clouds.5 mph65%N/AN/A
10:00 AM77 °FScattered clouds.3 mph69%30.18 "HgN/A
9:30 AM75 °FPassing clouds.3 mph74%30.18 "HgN/A
9:00 AM72 °FScattered clouds.3 mph83%30.18 "HgN/A
Weather by CustomWeather, © 2014

See weather overviewHow to use our weather pages